Weather History for K40J - September, 2013

Change the Weather History Date:

Saturday, September 21, 2013

  Actual Average (KCTY) Record (KCTY)
Temperature  
Mean Temperature 78 °F 78 °F  
Max Temperature 88 °F 88 °F 95 °F (2010)
Min Temperature 69 °F 67 °F 55 °F (2006)
Degree Days  
Heating Degree Days 0 0  
Month to date heating degree days 0  
Since 1 July heating degree days 0  
Cooling Degree Days 12 13  
Month to date cooling degree days 299  
Year to date cooling degree days 2237  
Growing Degree Days 28 (Base 50)    
Moisture  
Dew Point 70 °F    
Average Humidity 81    
Maximum Humidity 100    
Minimum Humidity 58    
Precipitation  
Precipitation 1.12 in 0.11 in 1.40 in (1998)
Month to date precipitation 3.45  
Year to date precipitation 38.82  
Sea Level Pressure  
Sea Level Pressure 29.85 in    
Wind  
Wind Speed 6 mph (SSE)    
Max Wind Speed 12 mph    
Max Gust Speed 20 mph    
Visibility 10 miles    
Events Rain    
T = Trace of Precipitation, MM = Missing Value Source: NWS Daily Summary

Daily Weather History Graph

Daily Weather History Graph

Search for Another Location

Airport or City:

Trip Planner

Search our weather history database for the weather conditions in past years. The results will help you decide how hot, cold, wet, or windy it might be!

Date:

Astronomy

Sep. 21, 2013 Rise Set
Actual Time 7:22 AM EDT 7:31 PM EDT
Civil Twilight 6:58 AM EDT 7:55 PM EDT
Nautical Twilight 6:30 AM EDT 8:23 PM EDT
Astronomical Twilight 6:02 AM EDT 8:51 PM EDT
Moon 8:56 PM EDT (9/21) 9:26 AM EDT (9/21)
Length of Visible Light 12h 57m
Length of Day
12h 09m
Waning Gibbous, 94% of the Moon is Illuminated
Sep 21
Waning Gibbous
Sep 26
Last Quarter
Oct 4
New
Oct 11
First Quarter
Oct 18
Full

Hourly Weather History & Observations

Time (EDT) Temp. Heat Index Dew Point Humidity Pressure Visibility Wind Dir Wind Speed Gust Speed Precip Events Conditions
12:15 AM 71.6 °F - 66.2 °F 83% 29.96 in 10.0 mi ESE 4.6 mph - N/A   Scattered Clouds
12:35 AM 71.6 °F - 68.0 °F 88% 29.96 in 10.0 mi Calm Calm - N/A   Scattered Clouds
12:53 AM 75.0 °F - 68.0 °F 79% 29.94 in - ESE 8.1 mph - N/A   Unknown
12:55 AM 71.6 °F - 68.0 °F 88% 29.95 in 10.0 mi ESE 6.9 mph - N/A   Clear
1:15 AM 71.6 °F - 68.0 °F 88% 29.95 in 10.0 mi SE 6.9 mph - N/A   Clear
1:35 AM 71.6 °F - 68.0 °F 88% 29.94 in 10.0 mi SE 6.9 mph - N/A   Clear
1:53 AM 73.9 °F - 68.0 °F 82% 29.93 in - SE 5.8 mph - N/A   Unknown
1:55 AM 71.6 °F - 68.0 °F 88% 29.94 in 10.0 mi SE 4.6 mph - N/A   Clear
2:15 AM 71.6 °F - 68.0 °F 88% 29.94 in 10.0 mi SE 4.6 mph - N/A   Scattered Clouds
2:35 AM 71.6 °F - 68.0 °F 88% 29.92 in 10.0 mi ESE 5.8 mph - N/A   Scattered Clouds
2:53 AM 73.9 °F - 68.0 °F 82% 29.90 in - ESE 6.9 mph - N/A   Unknown
2:55 AM 71.6 °F - 68.0 °F 88% 29.91 in 10.0 mi ESE 6.9 mph - N/A   Clear
3:15 AM 71.6 °F - 68.0 °F 88% 29.90 in 10.0 mi ESE 5.8 mph - N/A   Clear
3:35 AM 71.6 °F - 68.0 °F 88% 29.90 in 10.0 mi ESE 5.8 mph - N/A   Clear
3:53 AM 73.0 °F - 68.0 °F 84% 29.88 in - ESE 6.9 mph - N/A   Unknown
3:55 AM 71.6 °F - 68.0 °F 88% 29.90 in 10.0 mi ESE 6.9 mph - N/A   Clear
4:15 AM 69.8 °F - 68.0 °F 94% 29.89 in 10.0 mi SE 5.8 mph - N/A   Clear
4:35 AM 69.8 °F - 68.0 °F 94% 29.89 in 10.0 mi ESE 5.8 mph - N/A   Clear
4:53 AM 72.0 °F - 68.0 °F 87% 29.87 in - ESE 5.8 mph - N/A   Unknown
4:55 AM 69.8 °F - 68.0 °F 94% 29.88 in 10.0 mi ESE 6.9 mph - N/A   Clear
5:15 AM 69.8 °F - 68.0 °F 94% 29.88 in 10.0 mi SE 5.8 mph - N/A   Clear
5:35 AM 69.8 °F - 68.0 °F 94% 29.88 in 10.0 mi ESE 5.8 mph - N/A   Clear
5:53 AM 72.0 °F - 68.0 °F 87% 29.87 in - SE 4.6 mph - N/A   Unknown
5:55 AM 69.8 °F - 68.0 °F 94% 29.88 in 10.0 mi SE 3.5 mph - N/A   Clear
6:15 AM 69.8 °F - 68.0 °F 94% 29.88 in 10.0 mi SE 5.8 mph - N/A   Clear
6:35 AM 69.8 °F - 68.0 °F 94% 29.88 in 10.0 mi SE 5.8 mph - N/A   Clear
6:53 AM 71.1 °F - 66.9 °F 87% 29.88 in - SE 6.9 mph - N/A   Unknown
6:55 AM 69.8 °F - 68.0 °F 94% 29.89 in 10.0 mi SE 5.8 mph - N/A   Clear
7:15 AM 69.8 °F - 66.2 °F 88% 29.90 in 10.0 mi SE 4.6 mph - N/A   Clear
7:35 AM 69.8 °F - 66.2 °F 88% 29.90 in 10.0 mi SE 5.8 mph - N/A   Clear
7:53 AM 72.0 °F - 68.0 °F 87% 29.88 in - SE 6.9 mph - N/A   Unknown
7:55 AM 69.8 °F - 68.0 °F 94% 29.90 in 10.0 mi SE 5.8 mph - N/A   Clear
8:15 AM 69.8 °F - 68.0 °F 94% 29.90 in 10.0 mi SE 6.9 mph - N/A   Clear
8:35 AM 71.6 °F - 69.8 °F 94% 29.90 in 10.0 mi SE 5.8 mph - N/A   Clear
8:53 AM 75.9 °F - 70.0 °F 82% 29.88 in - SE 6.9 mph - N/A   Unknown
8:55 AM 73.4 °F - 69.8 °F 88% 29.90 in 10.0 mi SE 5.8 mph - N/A   Clear
9:15 AM 77.0 °F - 69.8 °F 78% 29.90 in 10.0 mi SE 5.8 mph - N/A   Clear
9:35 AM 78.8 °F - 69.8 °F 74% 29.89 in 10.0 mi SSE 6.9 mph - N/A   Clear
9:53 AM 81.0 °F 84.9 °F 71.1 °F 72% 29.88 in - SSE 10.4 mph - N/A   Unknown
9:55 AM 78.8 °F - 69.8 °F 74% 29.89 in 10.0 mi SSE 9.2 mph - N/A   Clear
10:15 AM 80.6 °F 83.9 °F 69.8 °F 70% 29.89 in 10.0 mi SSE 6.9 mph - N/A   Clear
10:35 AM 82.4 °F 87.2 °F 71.6 °F 70% 29.88 in 10.0 mi SSE 9.2 mph - N/A   Clear
10:53 AM 84.9 °F 90.7 °F 72.0 °F 65% 29.87 in - SE 11.5 mph - 0.01 in   Unknown
10:55 AM 82.4 °F 86.3 °F 69.8 °F 66% 29.89 in 10.0 mi SSE 10.4 mph 16.1 mph N/A   Clear
11:15 AM 82.4 °F 87.2 °F 71.6 °F 70% 29.89 in 10.0 mi SSE 8.1 mph - N/A   Scattered Clouds
11:35 AM 82.4 °F 86.3 °F 69.8 °F 66% 29.89 in 10.0 mi South 10.4 mph - N/A   Mostly Cloudy
11:53 AM 86.0 °F 91.5 °F 71.1 °F 61% 29.87 in - SSE 9.2 mph - N/A   Unknown
11:55 AM 84.2 °F 88.4 °F 69.8 °F 62% 29.88 in 10.0 mi South 8.1 mph - N/A   Scattered Clouds
12:15 PM 84.2 °F 88.4 °F 69.8 °F 62% 29.88 in 10.0 mi South 10.4 mph - N/A   Scattered Clouds
12:35 PM 84.2 °F 87.3 °F 68.0 °F 58% 29.88 in 10.0 mi South 9.2 mph 16.1 mph N/A   Mostly Cloudy
12:53 PM 79.0 °F - 73.0 °F 82% 29.87 in - SW 8.1 mph 19.6 mph 0.04 in   Unknown
12:55 PM 78.8 °F - 71.6 °F 78% 29.88 in 4.0 mi WSW 6.9 mph 18.4 mph 0.03 in Rain Light Rain
1:15 PM 78.8 °F - 71.6 °F 78% 29.87 in 10.0 mi South 10.4 mph - N/A   Overcast
1:35 PM 80.6 °F 84.6 °F 71.6 °F 74% 29.86 in 10.0 mi South 6.9 mph - N/A   Overcast
1:53 PM 84.0 °F 89.0 °F 71.1 °F 65% 29.83 in - SSE 11.5 mph 17.3 mph N/A   Unknown
1:55 PM 82.4 °F 86.3 °F 69.8 °F 66% 29.85 in 10.0 mi South 10.4 mph - N/A   Mostly Cloudy
2:15 PM 84.2 °F 88.4 °F 69.8 °F 62% 29.84 in 10.0 mi South 10.4 mph - N/A   Scattered Clouds
2:35 PM 84.2 °F 88.4 °F 69.8 °F 62% 29.83 in 10.0 mi SSE 10.4 mph - N/A   Scattered Clouds
2:53 PM 86.0 °F 91.5 °F 71.1 °F 61% 29.80 in - South 11.5 mph 17.3 mph N/A   Unknown
2:55 PM 84.2 °F 88.4 °F 69.8 °F 62% 29.82 in 10.0 mi South 11.5 mph - N/A   Mostly Cloudy
3:15 PM 82.4 °F 86.3 °F 69.8 °F 66% 29.81 in 10.0 mi South 10.4 mph - N/A   Scattered Clouds
3:35 PM 84.2 °F 88.4 °F 69.8 °F 62% 29.81 in 10.0 mi SSW 11.5 mph 16.1 mph N/A   Clear
3:53 PM 84.9 °F 89.4 °F 70.0 °F 61% 29.79 in - South 9.2 mph - N/A   Unknown
3:55 PM 82.4 °F 86.3 °F 69.8 °F 66% 29.80 in 10.0 mi SSW 9.2 mph - N/A   Scattered Clouds
4:15 PM 82.4 °F 85.4 °F 68.0 °F 62% 29.80 in 10.0 mi SSW 8.1 mph - N/A   Scattered Clouds
4:35 PM 82.4 °F 85.4 °F 68.0 °F 62% 29.79 in 10.0 mi SSW 10.4 mph - N/A   Clear
4:53 PM 82.9 °F 87.0 °F 70.0 °F 65% 29.78 in - South 8.1 mph - N/A   Unknown
4:55 PM 80.6 °F 83.9 °F 69.8 °F 70% 29.79 in 10.0 mi South 6.9 mph - N/A   Clear
5:15 PM 80.6 °F 83.9 °F 69.8 °F 70% 29.78 in 10.0 mi South 6.9 mph - N/A   Clear
5:35 PM 80.6 °F 83.9 °F 69.8 °F 70% 29.78 in 10.0 mi South 5.8 mph - N/A   Clear
5:53 PM 82.0 °F 86.3 °F 71.1 °F 69% 29.77 in - SSE 6.9 mph - N/A   Unknown
5:55 PM 78.8 °F - 71.6 °F 78% 29.78 in 10.0 mi SSE 4.6 mph - N/A   Clear
6:15 PM 78.8 °F - 71.6 °F 78% 29.79 in 10.0 mi South 4.6 mph - N/A   Clear
6:35 PM 78.8 °F - 71.6 °F 78% 29.79 in 10.0 mi SSE 4.6 mph - N/A   Clear
6:53 PM 80.1 °F 83.8 °F 72.0 °F 76% 29.78 in - South 3.5 mph - N/A   Unknown
6:55 PM 78.8 °F - 71.6 °F 78% 29.79 in 10.0 mi South 3.5 mph - N/A Rain Light Rain
7:15 PM 77.0 °F - 71.6 °F 83% 29.79 in 10.0 mi Calm Calm - N/A Rain Light Rain
7:35 PM 77.0 °F - 71.6 °F 83% 29.79 in 10.0 mi North 4.6 mph - N/A   Mostly Cloudy
7:53 PM 77.0 °F - 73.9 °F 90% 29.79 in - NNW 9.2 mph - 0.14 in   Unknown
7:55 PM 75.2 °F - 71.6 °F 89% 29.80 in 1.5 mi North 9.2 mph - 0.38 in Rain Heavy Rain
8:15 PM 75.2 °F - 71.6 °F 89% 29.80 in 10.0 mi WSW 3.5 mph - 0.11 in   Overcast
8:35 PM 75.2 °F - 71.6 °F 89% 29.79 in 10.0 mi Calm Calm - 0.12 in   Overcast
8:53 PM 77.0 °F - 73.0 °F 88% 29.78 in - Calm Calm - 0.67 in   Unknown
8:55 PM 73.4 °F - 71.6 °F 94% 29.79 in 7.0 mi Calm Calm - 0.12 in Rain Light Rain
9:15 PM 73.4 °F - 71.6 °F 94% 29.80 in 10.0 mi SSE 6.9 mph - N/A Rain Light Rain
9:35 PM 73.4 °F - 71.6 °F 94% 29.80 in 10.0 mi SSE 9.2 mph - 0.01 in Rain Rain
9:53 PM 75.0 °F - 71.1 °F 87% 29.79 in - SSE 5.8 mph - 0.01 in   Unknown
9:55 PM 71.6 °F - 69.8 °F 94% 29.81 in 10.0 mi SSE 4.6 mph - 0.01 in   Light Drizzle
10:15 PM 71.6 °F - 69.8 °F 94% 29.81 in 10.0 mi Calm Calm - N/A Rain Light Rain
10:35 PM 71.6 °F - 69.8 °F 94% 29.81 in 10.0 mi Calm Calm - 0.01 in Rain Light Rain
10:53 PM 75.0 °F - 71.1 °F 87% 29.78 in - SE 5.8 mph - N/A   Unknown
10:55 PM 71.6 °F - 69.8 °F 94% 29.80 in 10.0 mi SE 4.6 mph - 0.01 in Rain Light Rain
11:15 PM 71.6 °F - 69.8 °F 94% 29.80 in 10.0 mi Calm Calm - N/A Rain Light Rain
11:35 PM 71.6 °F - 69.8 °F 94% 29.81 in 10.0 mi Calm Calm - N/A Rain Light Rain
11:53 PM 75.0 °F - 72.0 °F 90% 29.79 in - Calm Calm - N/A   Unknown
11:55 PM 71.6 °F - 71.6 °F 100% 29.80 in 10.0 mi Calm Calm - N/A   Mostly Cloudy